TITAN 3C TRANSTAGE DEB, 1684

Orbit data source: Space-Track

TITAN 3C TRANSTAGE DEB, 1684 is space debris in LEO originally from a launch on Fri, 15 Oct 1965 UTC launched from the Air Force Eastern Test Range (AFETR). Debris objects in space refer to the collection of defunct objects orbiting the Earth. Examples of debris include non-operational satellites, rocket bodies, and fragments generated from explosions, collisions, or faulty payload assembly.

Loading next visibility...
Identifier
1684, 1965-082AX
Orbit
LEO
Country
Flag of USUS
Related business
Manufacturer
Unknown
Mission
Spacecraft
Bus & Motor
Unknown
Mass
Unknown
Launch date (UTC)
1965-10-15 (61 years ago)
Launch vehicle
Unknown
Launch site
Air Force Eastern Test Range (AFETR)
Object type
Payload
Rocket body
Debris
Shape & HBR
Unknown shape, 0.9 m
Radar Cross Section
Large (>1 m²)

Expand to show TLE details & history
Last TLE update: 2 days ago

TLE from 2 days ago
0 TITAN 3C TRANSTAGE DEB
1 01684U 65082AX  26171.04972292  .00000632  00000-0  15764-3 0  9999
2 01684  32.2110 160.7739 0166826  91.2654 270.7103 14.40410365142958
Epoch: 2026-06-20T01:11Z
TLE epoch observation values (Epoch: 2026-06-20T01:11:36.060Z)
Latitude
-0.00001°
Longitude
-125.39628°
Altitude
756.323 km
Speed
7.478 km/s
True Right ascension
10h 43m 05s
True Declination
0° 00' 00"
Sunlit
Object was in daylight at epoch
Visualization orbit readout
Latitude
Unknown
Longitude
Unknown
Altitude
Unknown
Speed
Unknown
Apparent Right ascension
Unknown
Apparent Declination
Unknown
Sunlit
N/A
Visualization observer readout
Local Sidereal Time
01:55:46
Azimuth
Unknown
Elevation
Unknown
Doppler factor
Unknown
Orbital elements
Apogee altitude
879.786 km
Perigee altitude
641.598 km
Semi-major axis
7,138.829 km
Eccentricity
0.01668
Inclination
32.211°
RAAN
160.7739°
Arg. of periapsis
91.2654°
True anomaly
268.79862°
Mean anomaly
270.7103°
Eccentric anomaly
269.75447°
Mean motion
3.59834 °/min
Orbital period
100.05 mins
BSTAR
0.00015764

Documentation

Showing up to 5 results
|